Back to catalog

STARLINK-3336

AliveCommunicationsVLEO
NORAD 50818·PAYLOAD·🇺🇸 United States

Launched Jan 6, 2022 from Cape Canaveral Space Force Station

Loading…

Next Passes (next 24 hours)

TLE

FreshSource: CelesTrak SupGP

Epoch: Sep 14, 2026, 21:01 UTC

1 50818C 22001R   26257.87618056  .00029512  00000+0  87207-3 0  2572
2 50818  53.1602  28.3517 0001130  76.5092  92.2809 15.34371387    14

Track STARLINK-3336 in real time with AllMySat

Download on the App Store